Weather History for Smithfield, NC

Change the Weather History Date:

Wednesday, December 5, 2012

  Actual Average Record
Temperature  
Mean Temperature 56 °F -  
Max Temperature 68 °F 58 °F 76 °F (1982)
Min Temperature 44 °F 32 °F 19 °F (1974)
Degree Days  
Heating Degree Days 9    
Growing Degree Days 6 (Base 50)    
Moisture  
Dew Point 54 °F    
Average Humidity 90    
Maximum Humidity 100    
Minimum Humidity 64    
Precipitation  
Precipitation 0.00 in - - ()
Sea Level Pressure  
Sea Level Pressure 30.16 in    
Wind  
Wind Speed 3 mph (West)    
Max Wind Speed 10 mph    
Max Gust Speed 20 mph    
Visibility 9 miles    
Events      
Averages and records for this station are not official NWS values.
T = Trace of Precipitation, MM = Missing Value Source: NWS Daily Summary

Daily Weather History Graph

Daily Weather History Graph

Search for Another Location

Airport:

Trip Planner

Search our weather history database for the weather conditions in past years. The results will help you decide how hot, cold, wet, or windy it might be!

Date:

Astronomy

Dec. 05, 2012 Rise Set
Actual Time 7:08 AM EST 5:00 PM EST
Civil Twilight 6:40 AM EST 5:28 PM EST
Nautical Twilight 6:08 AM EST 6:00 PM EST
Astronomical Twilight 5:37 AM EST 6:31 PM EST
Moon 11:37 PM EST (12/5) 11:40 AM EST (12/5)
Length of Visible Light 10h 48m
Length of Day
9h 51m
Waning Gibbous, 60% of the Moon is Illuminated
Dec 5
Waning Gibbous
Dec 6
Last Quarter
Dec 13
New
Dec 20
First Quarter
Dec 28
Full

Hourly Weather History & Observations

Time (EST) Temp. Windchill Dew Point Humidity Pressure Visibility Wind Dir Wind Speed Gust Speed Precip Events Conditions
12:15 AM 46.4 °F - 46.4 °F 100% 30.18 in 10.0 mi Calm Calm - N/A   Clear
12:35 AM 44.6 °F - 44.6 °F 100% 30.18 in 10.0 mi Calm Calm - N/A   Clear
12:55 AM 46.4 °F 45.2 °F 46.4 °F 100% 30.17 in 10.0 mi South 3.5 mph - N/A   Clear
1:15 AM 50.0 °F - 50.0 °F 100% 30.17 in 4.0 mi Calm Calm - N/A   Clear
1:35 AM 46.4 °F - 46.4 °F 100% 30.17 in 0.8 mi Calm Calm - N/A   Unknown
1:55 AM 51.8 °F - 51.8 °F 100% 30.17 in 10.0 mi Calm Calm - N/A   Clear
2:15 AM 53.6 °F - 53.6 °F 100% 30.17 in 10.0 mi SSW 4.6 mph - N/A   Clear
2:35 AM 55.4 °F - 55.4 °F 100% 30.17 in 10.0 mi SSW 3.5 mph - N/A   Clear
2:55 AM 55.4 °F - 55.4 °F 100% 30.16 in 10.0 mi SSW 4.6 mph - N/A   Clear
3:15 AM 55.4 °F - 55.4 °F 100% 30.16 in 10.0 mi SW 4.6 mph - N/A   Clear
3:35 AM 55.4 °F - 55.4 °F 100% 30.15 in 10.0 mi South 5.8 mph - N/A   Clear
3:55 AM 55.4 °F - 55.4 °F 100% 30.14 in 10.0 mi SSW 6.9 mph - N/A   Clear
4:15 AM 57.2 °F - 57.2 °F 100% 30.14 in 10.0 mi SW 5.8 mph - N/A   Clear
4:35 AM 57.2 °F - 57.2 °F 100% 30.14 in 10.0 mi SW 4.6 mph - N/A   Clear
4:55 AM 57.2 °F - 57.2 °F 100% 30.14 in 10.0 mi SW 4.6 mph - N/A   Clear
5:15 AM 59.0 °F - 59.0 °F 100% 30.13 in 10.0 mi SW 6.9 mph - N/A   Clear
5:35 AM 57.2 °F - 57.2 °F 100% 30.14 in 10.0 mi SW 5.8 mph - N/A   Clear
5:55 AM 57.2 °F - 57.2 °F 100% 30.14 in 10.0 mi SW 3.5 mph - N/A   Mostly Cloudy
6:15 AM 57.2 °F - 57.2 °F 100% 30.15 in 10.0 mi Calm Calm - N/A   Overcast
6:35 AM 55.4 °F - 55.4 °F 100% 30.15 in 10.0 mi SW 3.5 mph - N/A   Mostly Cloudy
6:55 AM 57.2 °F - 57.2 °F 100% 30.15 in 10.0 mi SW 4.6 mph - N/A   Overcast
7:15 AM 57.2 °F - 57.2 °F 100% 30.16 in 10.0 mi SW 3.5 mph - N/A   Overcast
7:35 AM 57.2 °F - 57.2 °F 100% 30.16 in 10.0 mi SW 3.5 mph - N/A   Overcast
7:55 AM 57.2 °F - 57.2 °F 100% 30.17 in 10.0 mi SW 3.5 mph - N/A   Overcast
9:35 AM 60.8 °F - 57.2 °F 88% 30.18 in 10.0 mi SW 9.2 mph - N/A   Overcast
9:55 AM 62.6 °F - 57.2 °F 82% 30.18 in 10.0 mi SW 8.1 mph - N/A   Mostly Cloudy
10:15 AM 64.4 °F - 55.4 °F 73% 30.17 in 10.0 mi WSW 4.6 mph - N/A   Scattered Clouds
10:35 AM 64.4 °F - 55.4 °F 73% 30.17 in 10.0 mi WSW 5.8 mph 19.6 mph N/A   Mostly Cloudy
10:55 AM 64.4 °F - 55.4 °F 73% 30.17 in 10.0 mi WSW 8.1 mph - N/A   Overcast
11:15 AM 64.4 °F - 55.4 °F 73% 30.16 in 10.0 mi West 4.6 mph - N/A   Overcast
11:35 AM 64.4 °F - 55.4 °F 73% 30.16 in 10.0 mi West 3.5 mph - N/A   Overcast
11:55 AM 66.2 °F - 55.4 °F 68% 30.15 in 10.0 mi West 3.5 mph - N/A   Overcast
12:15 PM 68.0 °F - 55.4 °F 64% 30.14 in 10.0 mi WNW 5.8 mph - N/A   Overcast
12:35 PM 68.0 °F - 55.4 °F 64% 30.13 in 10.0 mi West 4.6 mph - N/A   Overcast
12:55 PM 68.0 °F - 55.4 °F 64% 30.12 in 10.0 mi NNW 4.6 mph - N/A   Overcast
1:15 PM 66.2 °F - 53.6 °F 64% 30.12 in 10.0 mi NNW 4.6 mph - N/A   Overcast
1:35 PM 68.0 °F - 55.4 °F 64% 30.11 in 10.0 mi North 4.6 mph - N/A   Overcast
1:55 PM 66.2 °F - 53.6 °F 64% 30.11 in 10.0 mi North 5.8 mph - N/A   Mostly Cloudy
2:15 PM 66.2 °F - 53.6 °F 64% 30.11 in 10.0 mi NNW 5.8 mph - N/A   Overcast
2:35 PM 64.4 °F - 53.6 °F 68% 30.11 in 10.0 mi NNW 4.6 mph - N/A   Mostly Cloudy
2:55 PM 64.4 °F - 53.6 °F 68% 30.11 in 10.0 mi North 6.9 mph - N/A   Overcast
3:15 PM 62.6 °F - 53.6 °F 72% 30.11 in 10.0 mi North 9.2 mph - N/A   Overcast
3:35 PM 62.6 °F - 53.6 °F 72% 30.12 in 10.0 mi North 3.5 mph - N/A   Overcast
3:55 PM 62.6 °F - 55.4 °F 77% 30.13 in 10.0 mi North 5.8 mph - N/A   Overcast
4:15 PM 60.8 °F - 55.4 °F 82% 30.13 in 10.0 mi North 3.5 mph - N/A   Overcast
4:35 PM 60.8 °F - 55.4 °F 82% 30.14 in 10.0 mi North 5.8 mph - N/A   Overcast
4:55 PM 60.8 °F - 55.4 °F 82% 30.15 in 10.0 mi Calm Calm - N/A   Overcast
5:15 PM 60.8 °F - 53.6 °F 77% 30.16 in 10.0 mi North 9.2 mph 16.1 mph N/A   Overcast
5:35 PM 59.0 °F - 55.4 °F 88% 30.17 in 10.0 mi NNE 10.4 mph - N/A   Overcast
5:55 PM 57.2 °F - 55.4 °F 94% 30.17 in 10.0 mi NNE 9.2 mph - N/A   Overcast
6:15 PM 55.4 °F - 55.4 °F 100% 30.18 in 10.0 mi NNE 4.6 mph - N/A   Overcast
6:35 PM 55.4 °F - 55.4 °F 100% 30.18 in 10.0 mi NE 3.5 mph - N/A   Overcast
6:55 PM 55.4 °F - 55.4 °F 100% 30.18 in 10.0 mi SE 3.5 mph - N/A   Overcast
7:15 PM 55.4 °F - 55.4 °F 100% 30.19 in 10.0 mi Calm Calm - N/A   Overcast
7:35 PM 55.4 °F - 55.4 °F 100% 30.19 in 10.0 mi Calm Calm - N/A   Overcast
7:55 PM 55.4 °F - 55.4 °F 100% 30.19 in 10.0 mi Calm Calm - N/A   Overcast
8:15 PM 55.4 °F - 53.6 °F 94% 30.19 in 10.0 mi Calm Calm - N/A   Overcast
8:35 PM 53.6 °F - 53.6 °F 100% 30.20 in 10.0 mi Calm Calm - N/A   Overcast
8:55 PM 53.6 °F - 53.6 °F 100% 30.20 in 10.0 mi Calm Calm - N/A   Overcast
9:15 PM 53.6 °F - 53.6 °F 100% 30.19 in 10.0 mi Calm Calm - N/A   Overcast
9:35 PM 53.6 °F - 53.6 °F 100% 30.19 in 10.0 mi Calm Calm - N/A   Overcast
9:55 PM 53.6 °F - 53.6 °F 100% 30.20 in 10.0 mi Calm Calm - N/A   Overcast
10:15 PM 51.8 °F - 51.8 °F 100% 30.20 in 10.0 mi Calm Calm - N/A   Overcast
10:35 PM 51.8 °F - 51.8 °F 100% 30.20 in 10.0 mi Calm Calm - N/A   Overcast
10:55 PM 50.0 °F - 50.0 °F 100% 30.20 in 0.8 mi Calm Calm - N/A   Overcast
11:15 PM 46.4 °F - 46.4 °F 100% 30.21 in 0.2 mi Calm Calm - N/A   Overcast
11:35 PM 44.6 °F - 44.6 °F 100% 30.21 in 0.5 mi Calm Calm - N/A   Overcast
11:55 PM 44.6 °F - 44.6 °F 100% 30.21 in 0.2 mi Calm Calm - N/A   Overcast